Regional Weather Roundup
Issued by NWS

Home | Current Version | Previous Version | Graphics & Text | Print | Product List | Glossary On
Versions: 1 2 3 4 5 6 7 8 9 10 11 12 13 14 15 16 17 18 19 20 21 22 23 24 25 26 27 28 29 30 31 32 33 34 35 36 37 38 39 40 41 42 43 44 45 46 47 48 49 50
000
ASUS43 KFSD 310310
RWRSD

WEATHER ROUNDUP FOR SOUTH DAKOTA
NATIONAL WEATHER SERVICE SIOUX FALLS SD
1000 PM CDT MON MAY 30 2016

NOTE: "FAIR" INDICATES FEW OR NO CLOUDS BELOW 12,000 FEET WITH NO
SIGNIFICANT WEATHER AND/OR OBSTRUCTIONS TO VISIBILITY.


SDZ001>005-009-010-012>017-310400-
NORTHWEST AND NORTH CENTRAL SOUTH DAKOTA

CITY           SKY/WX    TMP DP  RH WIND       PRES   REMARKS
BUFFALO          N/A     54  44  69 NW17      29.94R
FAITH            N/A     53  46  77 NW16      29.93R
MOBRIDGE       CLOUDY    59  54  83 NW12      29.80R
$$

SDZ012>016-024>037-041>051-057-063-072>074-310400-
SOUTHWEST AND SOUTH CENTRAL SOUTH DAKOTA

CITY           SKY/WX    TMP DP  RH WIND       PRES   REMARKS
RAPID CTY ARPT LGT RAIN  54  45  71 NW17      29.99S
PIERRE         CLOUDY    59  56  89 W7        29.86R
CUSTER         CLOUDY    48  41  76 N10G25    30.05F
ELLSWORTH AFB  MOCLDY    56  43  61 NW21G28   29.99F
PHILIP         CLOUDY    60  50  69 NW15G24   29.92R
PINE RIDGE     CLOUDY    57  44  62 N17G32    30.00R
WINNER         LGT RAIN  62  57  83 N16       29.87R
$$

SDZ004>011-016>023-039-040-310400-
NORTHEAST SOUTH DAKOTA

CITY           SKY/WX    TMP DP  RH WIND       PRES   REMARKS
ABERDEEN       TSTM      60  56  86 NW5       29.77S FOG
WATERTOWN      CLOUDY    73  55  53 SE7       29.77F
BROOKINGS      CLOUDY    71  57  61 SE10      29.79R
SISSETON         N/A     71  55  56 S8        29.74F
$$

SDZ017-020-022-023-036>040-048>070-310400-
SOUTHEAST SOUTH DAKOTA

CITY           SKY/WX    TMP DP  RH WIND       PRES   REMARKS
SIOUX FALLS    CLOUDY    74  59  59 S13G22    29.80R
HURON          LGT RAIN  74  62  66 S14G22    29.75R
CHAMBERLAIN    CLOUDY    66  59  76 NW16G24   29.84R
MITCHELL       CLOUDY    76  61  59 W13G25    29.77R THUNDER
YANKTON        CLOUDY    73  57  56 SE6       29.78R
$$

ABBREVIATIONS USED IN REMARKS
   TC - TEMPERATURE IN CELSIUS
  WCI - WIND CHILL INDEX
   HX - HEAT INDEX
  VSB - VISIBILITY





USA.gov is the U.S. government's official web portal to all federal, state and local government web resources and services.